User: anonymous   Login
Location: ?????????
(53.2086°N, 54.0693°E)
Time: 13:45:19
(UTC+00:00)
Language:

Cosmos 1862 Rocket - Orbit

View from above orbital plane
View from above orbital plane
View from above satellite
View from above satellite

Ground track
Ground track

The orbit data is extracted from the following two-line orbital elements,

1 18153U 87055B   20053.09143454  .00000077  00000-0  63567-5 0  9999
2 18153  82.4978 264.4310 0023109  95.0432 265.3422 14.83278728763613
Epoch (UTC): 22 February 2020 02:11:39
Eccentricity: 0.0023109
inclination: 82.4978°
perigee height: 603 km
apogee height: 635 km
right ascension of ascending node: 264.4310°
argument of perigee: 95.0432°
revolutions per day: 14.83278728
mean anomaly at epoch: 265.3422°
orbit number at epoch: 76361

The dashed part of the orbit path shows where the satellite is in the earth's shadow,  

DLR